User: anonymous   Login
Location: Unspecified
(0.0000°N, 0.0000°E)
Time: 04:14:05
(UTC+00:00)
Language:

AO-Echo - Orbit

View from above orbital plane
View from above orbital plane
View from above satellite
View from above satellite

Ground track
Ground track

The orbit data is extracted from the following two-line orbital elements,

1 28375U 04025K   18169.35279811 +.00000012 +00000-0 +17052-4 0  9999
2 28375 098.3853 100.7619 0081255 259.5523 099.6502 14.41889658734525
Epoch (UTC): 18 June 2018 08:28:01
Eccentricity: 0.0081255
inclination: 98.3853°
perigee height: 694 km
apogee height: 810 km
right ascension of ascending node: 100.7619°
argument of perigee: 259.5523°
revolutions per day: 14.41889658
mean anomaly at epoch: 99.6502°
orbit number at epoch: 73452

The dashed part of the orbit path shows where the satellite is in the earth's shadow,  

DLR